Portada
METAR-TAF:

METAR-TAF

Aeroports :

Dakar, Senegal

latitud: 14-44N, longitud: 017-30W, altitud: 27 m

Observació

L'informe es va fer fa 26 minuts, a les 06:00 UTC
Vent 4 kt del Nord
Temperatura 22°C
Humitat 65%
Pressió 1013 hPa
Visibilitat: 4500 m
Pols estès

METAR: GOOY 120600Z 36004KT 4500 DU NSC 22/15 Q1013

Hora: 06:26 (06:26 UTC)

Pronòstic

L'informe es va fer fa 43 minuts, a les 05:43 UTC
Pronòstic vàlid del 12 a les 06 UTC al 13 a les 12 UTC
Vent 10 kt del Nord
Visibilitat: 4000 m
Pols estès

TAF: GOOY 120543Z 1206/1312 01010KT 4000 DU NSC

Observacions i pronòstics meteorològics de més de 4000 aeroports (METAR i TAF).

Les estacions disponibles són els punts grocs i vermells al mapa.

Posi el ratolí al punt desitjat per veure el nom de l'estació.

Feu clic per veure les observacions i els pronòstics meteorològics.

Per canviar el mapa: feu clic els botons verds amb una creu de color negre per apropar; al botó verd amb un guió per allunyar la imatge; o en les fletxes verdes per a mapes adjacents.


METAR-TAF: